Hourly Data Report for February 01, 2006

TORONTO CITY
ONTARIO

43°40'00.000" N
79°24'00.000" W
112.50 m
6158355
71508
XTO

Download Data

Hourly Data (February 2006)
Hourly Data Report for February 1, 2006
TIME
LST
Temp Definition
°C
Dew Point Definition
°C
Rel Hum Definition
%
Precip. Amount Definition
mm

Wind Dir Definition
10's deg

Wind Spd Definition
km/h
Visibility Definition
km
Stn Press Definition
kPa
Hmdx Definition


Wind Chill Definition


Weather Definition


00:00 0.4 -1.5 87   LegendMM LegendMM   99.97     LegendNANA
01:00 0.7 -1.8 83   LegendMM LegendMM   99.95     LegendNANA
02:00 1.1 -2.7 76   LegendMM LegendMM   99.94     LegendNANA
03:00 0.8 -2.9 76   LegendMM LegendMM   99.97     LegendNANA
04:00 -0.1 -3.3 79   LegendMM LegendMM   99.99     LegendNANA
05:00 -0.5 -3.4 81   LegendMM LegendMM   100.00     LegendNANA
06:00 -1.1 -3.6 83   LegendMM LegendMM   100.00     LegendNANA
07:00 -0.4 -3.0 83   LegendMM LegendMM   100.06     LegendNANA
08:00 0.0 -2.9 81   LegendMM LegendMM   100.01     LegendNANA
09:00 0.5 -2.9 78   LegendMM LegendMM   100.02     LegendNANA
10:00 1.3 -2.8 74   LegendMM LegendMM   99.98     LegendNANA
11:00 2.1 -3.4 67   LegendMM LegendMM   99.94     LegendNANA
12:00 2.2 -2.7 70   LegendMM LegendMM   99.87     LegendNANA
13:00 2.2 -2.0 74   LegendMM LegendMM   99.78     LegendNANA
14:00 2.7 -1.5 74   LegendMM LegendMM   99.65     LegendNANA
15:00 2.8 -0.9 77   LegendMM LegendMM   99.61     LegendNANA
16:00 2.8 -0.9 77   LegendMM LegendMM   99.53     LegendNANA
17:00 3.0 -0.2 79   LegendMM LegendMM   99.51     LegendNANA
18:00 3.4 -0.3 77   LegendMM LegendMM   99.50     LegendNANA
19:00 3.7 -0.3 75   LegendMM LegendMM   99.48     LegendNANA
20:00 3.9 -0.3 74   LegendMM LegendMM   99.48     LegendNANA
21:00 3.9 -0.3 74   LegendMM LegendMM   99.46     LegendNANA
22:00 3.8 -0.3 75   LegendMM LegendMM   99.38     LegendNANA
23:00 3.6 -0.1 77   LegendMM LegendMM   99.34     LegendNANA

Notes on Data Quality.

Legend

  • E = Estimated
  • M = Missing
  • NA = Not Available*
  • [empty] = Indicates an unobserved value
Date modified: